Home > Weather > Gulmarg > Past weeks

Flag for India Weather for the Past 2 Weeks in Gulmarg, Jammu and Kashmir, India

Now
46 °F

Fog.


Feels Like: 44 °F
Forecast: 34 / 57 °F
Wind: 5 mph from Northeast

Location: Islamabad Airport

Current Time: Feb 9, 2016 at 4:52:10 AM

Latest Report: Feb 9, 2016 at 4:30 AM


Visibility: 2 mi

Pressure: 30.07 "Hg (21.77 "Hg at 2657m altitude)

Humidity: 82%

Dew point: 41 °F

Location of GulmargLocation

Historic Weather in Gulmarg — Graph

°F

Gulmarg Temperature Yesterday

Maximum temperature yesterday: 70 °F (at 3:30 PM)
Minimum temperature yesterday: 50 °F (at 10:23 AM)
Average temperature yesterday: 64 °F

High & Low Weather Summary for the Past Weeks

 TemperatureHumidityPressure
High73 °F (Feb 5, 2:30 PM)100% (Jan 28, 4:30 AM)30.15 "Hg (Jan 28, 4:30 AM)
Low37 °F (Jan 25, 7:30 AM)27% (Feb 5, 2:30 PM)29.89 "Hg (Feb 6, 5:30 AM)
Average56 °F68%30.05 "Hg
* Reported Jan 25 3:30 AM — Feb 9 3:30 AM, Gulmarg, Weather by CustomWeather, © 2016

Note: Actual official high and low records may vary slightly from our data, if they occured in-between our weather recording intervals... More about our weather records

Advertising

Gulmarg Weather History for the Previous 24 Hours

 ConditionsComfort  
Time TempWeatherWind HumidityBarometerVisibility
3:30 AM
Tue, Feb 9
48 °FHaze.5 mph76%30.07 "Hg2 mi
2:30 AM52 °FHaze.5 mph77%30.07 "Hg2 mi
1:30 AM52 °FHaze.5 mph77%30.09 "Hg2 mi
12:30 AM52 °FHaze.5 mph77%30.09 "Hg2 mi
11:30 PM
Mon, Feb 8
54 °FHaze.5 mph77%30.12 "Hg2 mi
11:00 PM55 °FHaze.5 mph72%30.09 "Hg2 mi
10:30 PM55 °FHaze.5 mph72%30.09 "Hg2 mi
9:30 PM57 °FHaze.5 mph67%30.09 "Hg2 mi
8:30 PM61 °FHaze.5 mph68%30.09 "Hg2 mi
8:00 PM63 °FHaze.No wind64%30.07 "Hg2 mi
7:30 PM63 °FHaze.No wind64%30.07 "Hg2 mi
6:30 PM66 °FPassing clouds.No wind52%30.07 "Hg2 mi
6:00 PM68 °FScattered clouds.5 mph46%30.07 "Hg2 mi
5:00 PM70 °FScattered clouds.5 mph43%30.07 "Hg2 mi
4:30 PM70 °FHaze.5 mph43%30.07 "Hg2 mi
4:00 PM70 °FHaze.5 mph43%30.07 "Hg2 mi
3:30 PM70 °FHaze.5 mph43%30.07 "Hg2 mi
3:00 PM68 °FHaze.5 mph53%30.09 "Hg2 mi
2:30 PM68 °FHaze.5 mph53%30.09 "Hg2 mi
2:00 PM68 °FHaze.5 mph53%30.12 "Hg2 mi
1:30 PM68 °FHaze.5 mph53%30.12 "Hg2 mi
1:00 PM64 °FHaze.5 mph60%30.15 "Hg2 mi
12:30 PM64 °FHaze.5 mph60%30.15 "Hg2 mi
10:23 AM50 °FHaze.No wind76%N/A1 mi
Weather by CustomWeather, © 2016

See weather overviewHow to use our weather pages